Time,TemperatureF,DewpointF,PressureIn,WindDirection,WindDirectionDegrees,WindSpeedMPH,WindSpeedGustMPH,Humidity,HourlyPrecipIn,Conditions,Clouds,dailyrainin,SoftwareType,DateUTC
2013-03-18 00:03:00,34.0,34.0,-100.00,East,90,6.0,8.0,99,-99.99,,,-99.99,,2013-03-18 05:03:00,
2013-03-18 00:12:00,34.0,33.0,-100.00,East,95,4.0,7.0,99,-99.99,,,-99.99,,2013-03-18 05:12:00,
2013-03-18 00:32:00,34.0,34.0,-100.00,East,80,2.0,4.0,99,-99.99,,,-99.99,,2013-03-18 05:32:00,
2013-03-18 00:43:00,34.0,34.0,-100.00,East,80,2.0,4.0,99,-99.99,,,-99.99,,2013-03-18 05:43:00,
2013-03-18 01:02:00,34.0,34.0,-100.00,East,80,3.0,7.0,99,-99.99,,,-99.99,,2013-03-18 06:02:00,
2013-03-18 01:12:00,34.0,34.0,-100.00,ENE,70,4.0,6.0,99,-99.99,,,-99.99,,2013-03-18 06:12:00,
2013-03-18 01:32:00,34.0,34.0,-100.00,ENE,65,5.0,9.0,99,-99.99,,,-99.99,,2013-03-18 06:32:00,
2013-03-18 01:42:00,34.0,34.0,-100.00,NNE,25,2.0,6.0,99,-99.99,,,-99.99,,2013-03-18 06:42:00,
2013-03-18 02:02:00,34.0,34.0,-100.00,NE,35,1.0,1.0,99,-99.99,,,-99.99,,2013-03-18 07:02:00,
2013-03-18 02:12:00,34.0,34.0,-100.00,ENE,60,5.0,6.0,99,-99.99,,,-99.99,,2013-03-18 07:12:00,
2013-03-18 02:33:00,34.0,34.0,-100.00,ENE,65,6.0,9.0,99,-99.99,,,-99.99,,2013-03-18 07:33:00,
2013-03-18 02:42:00,34.0,34.0,-100.00,East,85,1.0,6.0,99,-99.99,,,-99.99,,2013-03-18 07:42:00,
2013-03-18 03:02:00,34.0,34.0,-100.00,NNE,20,1.0,4.0,99,-99.99,,,-99.99,,2013-03-18 08:02:00,
2013-03-18 03:12:00,34.0,34.0,-100.00,WNW,300,4.0,6.0,99,-99.99,,,-99.99,,2013-03-18 08:12:00,
2013-03-18 03:43:00,34.0,34.0,-100.00,WNW,300,6.0,9.0,99,-99.99,,,-99.99,,2013-03-18 08:43:00,
2013-03-18 04:02:00,34.0,34.0,-100.00,WNW,300,4.0,8.0,99,-99.99,,,-99.99,,2013-03-18 09:02:00,
2013-03-18 04:12:00,34.0,34.0,-100.00,WNW,300,7.0,9.0,99,-99.99,,,-99.99,,2013-03-18 09:12:00,
2013-03-18 04:33:00,34.0,34.0,-100.00,WNW,295,4.0,8.0,99,-99.99,,,-99.99,,2013-03-18 09:33:00,
2013-03-18 04:43:00,34.0,34.0,-100.00,North,350,6.0,9.0,99,-99.99,,,-99.99,,2013-03-18 09:43:00,
2013-03-18 05:03:00,34.0,34.0,-100.00,NW,310,4.0,6.0,99,-99.99,,,-99.99,,2013-03-18 10:03:00,
2013-03-18 05:13:00,34.0,34.0,-100.00,NNW,340,4.0,5.0,99,-99.99,,,-99.99,,2013-03-18 10:13:00,
2013-03-18 05:33:00,34.0,34.0,-100.00,NW,305,4.0,6.0,99,-99.99,,,-99.99,,2013-03-18 10:33:00,
2013-03-18 05:42:00,34.0,34.0,-100.00,WNW,300,7.0,9.0,99,-99.99,,,-99.99,,2013-03-18 10:42:00,
2013-03-18 06:03:00,34.0,34.0,-100.00,NW,310,11.0,14.0,99,-99.99,,,-99.99,,2013-03-18 11:03:00,
2013-03-18 06:13:00,34.0,34.0,-100.00,NW,315,11.0,16.0,99,-99.99,,,-99.99,,2013-03-18 11:13:00,
2013-03-18 06:32:00,34.0,34.0,-100.00,NW,320,10.0,17.0,99,-99.99,,,-99.99,,2013-03-18 11:32:00,
2013-03-18 06:42:00,34.0,34.0,-100.00,NW,310,11.0,18.0,99,-99.99,,,-99.99,,2013-03-18 11:42:00,
2013-03-18 07:32:00,34.0,34.0,-100.00,NW,310,11.0,16.0,99,-99.99,,,-99.99,,2013-03-18 12:32:00,
2013-03-18 07:42:00,34.0,34.0,-100.00,NW,315,13.0,16.0,99,-99.99,,,-99.99,,2013-03-18 12:42:00,
2013-03-18 08:02:00,34.0,34.0,-100.00,NW,305,9.0,15.0,99,-99.99,,,-99.99,,2013-03-18 13:02:00,
2013-03-18 08:12:00,35.0,34.0,-100.00,NW,310,8.0,14.0,99,-99.99,,,-99.99,,2013-03-18 13:12:00,
2013-03-18 08:33:00,35.0,34.0,-100.00,NW,320,11.0,16.0,99,-99.99,,,-99.99,,2013-03-18 13:33:00,
2013-03-18 08:42:00,35.0,35.0,-100.00,NW,320,10.0,15.0,99,-99.99,,,-99.99,,2013-03-18 13:42:00,
2013-03-18 09:02:00,35.0,35.0,-100.00,WNW,300,11.0,19.0,99,-99.99,,,-99.99,,2013-03-18 14:02:00,
2013-03-18 09:12:00,35.0,35.0,-100.00,WNW,300,11.0,19.0,99,-99.99,,,-99.99,,2013-03-18 14:12:00,
2013-03-18 09:32:00,36.0,36.0,-100.00,NW,310,11.0,19.0,99,-99.99,,,-99.99,,2013-03-18 14:32:00,
2013-03-18 09:42:00,36.0,36.0,-100.00,NW,305,16.0,24.0,99,-99.99,,,-99.99,,2013-03-18 14:42:00,
2013-03-18 10:02:00,37.0,37.0,-100.00,NW,320,14.0,23.0,99,-99.99,,,-99.99,,2013-03-18 15:02:00,
2013-03-18 10:12:00,38.0,38.0,-100.00,NW,325,16.0,26.0,99,-99.99,,,-99.99,,2013-03-18 15:12:00,
2013-03-18 10:33:00,39.0,37.0,-100.00,NW,320,16.0,28.0,91,-99.99,,,-99.99,,2013-03-18 15:33:00,
2013-03-18 10:43:00,40.0,36.0,-100.00,NNW,335,21.0,27.0,85,-99.99,,,-99.99,,2013-03-18 15:43:00,
2013-03-18 11:03:00,42.0,35.0,-100.00,NNW,330,13.0,28.0,76,-99.99,,,-99.99,,2013-03-18 16:03:00,
2013-03-18 11:42:00,43.0,29.0,-100.00,North,350,19.0,29.0,58,-99.99,,,-99.99,,2013-03-18 16:42:00,
2013-03-18 12:02:00,44.0,28.0,-100.00,NNW,335,16.0,26.0,53,-99.99,,,-99.99,,2013-03-18 17:02:00,
2013-03-18 12:32:00,44.0,26.0,-100.00,NNW,330,17.0,29.0,48,-99.99,,,-99.99,,2013-03-18 17:32:00,
2013-03-18 12:42:00,45.0,26.0,-100.00,NNW,345,15.0,26.0,47,-99.99,,,-99.99,,2013-03-18 17:42:00,
2013-03-18 13:02:00,45.0,25.0,-100.00,NNW,335,11.0,21.0,45,-99.99,,,-99.99,,2013-03-18 18:02:00,
2013-03-18 13:12:00,45.0,25.0,-100.00,North,350,12.0,23.0,45,-99.99,,,-99.99,,2013-03-18 18:12:00,
2013-03-18 13:32:00,46.0,25.0,-100.00,NW,310,21.0,28.0,44,-99.99,,,-99.99,,2013-03-18 18:32:00,
2013-03-18 13:42:00,45.0,24.0,-100.00,NW,320,21.0,27.0,43,-99.99,,,-99.99,,2013-03-18 18:42:00,
2013-03-18 14:33:00,48.0,25.0,-100.00,NNW,340,17.0,28.0,40,-99.99,,,-99.99,,2013-03-18 19:33:00,
2013-03-18 15:02:00,49.0,25.0,-100.00,NW,310,23.0,28.0,39,-99.99,,,-99.99,,2013-03-18 20:02:00,
2013-03-18 15:12:00,49.0,25.0,-100.00,NNW,330,16.0,26.0,38,-99.99,,,-99.99,,2013-03-18 20:12:00,
2013-03-18 15:33:00,51.0,25.0,-100.00,NNW,340,14.0,23.0,36,-99.99,,,-99.99,,2013-03-18 20:33:00,
2013-03-18 15:42:00,51.0,25.0,-100.00,NNW,340,14.0,23.0,36,-99.99,,,-99.99,,2013-03-18 20:42:00,
2013-03-18 16:32:00,51.0,24.0,-100.00,NW,310,20.0,35.0,34,-99.99,,,-99.99,,2013-03-18 21:32:00,
2013-03-18 17:03:00,53.0,24.0,-100.00,NW,315,19.0,27.0,32,-99.99,,,-99.99,,2013-03-18 22:03:00,
2013-03-18 17:13:00,53.0,24.0,-100.00,WNW,300,18.0,31.0,32,-99.99,,,-99.99,,2013-03-18 22:13:00,
2013-03-18 17:42:00,53.0,22.0,-100.00,WNW,300,21.0,32.0,30,-99.99,,,-99.99,,2013-03-18 22:42:00,
2013-03-18 18:03:00,52.0,21.0,-100.00,NW,320,22.0,32.0,29,-99.99,,,-99.99,,2013-03-18 23:03:00,
2013-03-18 18:12:00,52.0,21.0,-100.00,NW,310,21.0,26.0,29,-99.99,,,-99.99,,2013-03-18 23:12:00,
2013-03-18 18:32:00,52.0,20.0,-100.00,NW,320,20.0,29.0,29,-99.99,,,-99.99,,2013-03-18 23:32:00,
2013-03-18 18:42:00,51.0,20.0,-100.00,NW,315,16.0,26.0,29,-99.99,,,-99.99,,2013-03-18 23:42:00,
2013-03-18 19:32:00,50.0,20.0,-100.00,NNW,335,13.0,24.0,30,-99.99,,,-99.99,,2013-03-19 00:32:00,
2013-03-18 19:42:00,50.0,20.0,-100.00,NW,315,21.0,30.0,30,-99.99,,,-99.99,,2013-03-19 00:42:00,
2013-03-18 20:02:00,49.0,18.0,-100.00,NW,320,19.0,29.0,29,-99.99,,,-99.99,,2013-03-19 01:02:00,
2013-03-18 20:12:00,48.0,18.0,-100.00,NNW,335,16.0,24.0,30,-99.99,,,-99.99,,2013-03-19 01:12:00,
2013-03-18 20:32:00,45.0,17.0,-100.00,NNW,335,11.0,21.0,31,-99.99,,,-99.99,,2013-03-19 01:32:00,
2013-03-18 20:42:00,45.0,17.0,-100.00,NNW,335,11.0,21.0,31,-99.99,,,-99.99,,2013-03-19 01:42:00,
2013-03-18 21:12:00,44.0,16.0,-100.00,NNW,335,11.0,18.0,32,-99.99,,,-99.99,,2013-03-19 02:12:00,
2013-03-18 21:33:00,42.0,16.0,-100.00,NNW,340,9.0,12.0,34,-99.99,,,-99.99,,2013-03-19 02:33:00,
2013-03-18 21:42:00,42.0,16.0,-100.00,North,355,8.0,14.0,35,-99.99,,,-99.99,,2013-03-19 02:42:00,
2013-03-18 21:53:00,42.0,16.0,-100.00,North,355,8.0,14.0,35,-99.99,,,-99.99,,2013-03-19 02:53:00,
2013-03-18 22:02:00,41.0,16.0,-100.00,North,5,7.0,14.0,35,-99.99,,,-99.99,,2013-03-19 03:02:00,
2013-03-18 22:12:00,41.0,16.0,-100.00,North,0,9.0,15.0,36,-99.99,,,-99.99,,2013-03-19 03:12:00,
2013-03-18 22:22:00,41.0,16.0,-100.00,North,0,9.0,15.0,36,-99.99,,,-99.99,,2013-03-19 03:22:00,
2013-03-18 22:33:00,41.0,16.0,-100.00,North,0,9.0,15.0,36,-99.99,,,-99.99,,2013-03-19 03:33:00,
2013-03-18 22:43:00,40.0,15.0,-100.00,North,5,11.0,16.0,36,-99.99,,,-99.99,,2013-03-19 03:43:00,
2013-03-18 23:03:00,40.0,15.0,-100.00,NNE,15,9.0,14.0,36,-99.99,,,-99.99,,2013-03-19 04:03:00,
2013-03-18 23:13:00,39.0,14.0,-100.00,NNE,15,8.0,10.0,36,-99.99,,,-99.99,,2013-03-19 04:13:00,
2013-03-18 23:33:00,38.0,14.0,-100.00,NNE,25,6.0,11.0,37,-99.99,,,-99.99,,2013-03-19 04:33:00,
2013-03-18 23:43:00,37.0,14.0,-100.00,NNE,25,7.0,10.0,37,-99.99,,,-99.99,,2013-03-19 04:43:00,